TVARMINN Weather Reports


Display with metric or nautical units.
time (UTC)temp
F
wind
direction
speed
MPH
gust
MPH
rain 1hr
in
rain 24hr
in
rain mn
in
humidity
%
barometer
mb
20260906042454 48 0.0 0.0 0.00 0.00 0.00 87 1006.1
20260906040457 48 0.0 0.0 0.00 0.00 0.00 88 1005.8
20260906034127 48 0.0 0.0 0.00 0.00 0.00 89 1005.7
20260906032456 48 0.0 0.0 0.00 0.00 0.00 90 1005.3
20260906024457 49 0.0 0.0 0.00 0.00 0.00 87 1004.8
20260906022457 49 0.0 0.0 0.00 0.00 0.00 86 1004.6
20260906020127 49 0.0 0.0 0.00 0.00 0.00 85 1004.4
20260906014458 49 0.0 0.0 0.00 0.00 0.00 86 1004.2
20260906012456 50 0.0 0.0 0.00 0.00 0.00 85 1004.0
20260906010457 50 0.0 0.0 0.00 0.00 0.00 85 1003.6
20260906004458 51 0.0 0.0 0.00 0.00 0.00 85 1003.4
20260906002457 51 0.0 0.0 0.00 0.00 0.00 85 1003.1
20260906000455 52 0.0 0.0 0.00 0.00 0.00 85 1002.9
20260905234455 53 0.0 0.0 0.00 0.00 0.00 83 1002.5
20260905232455 53 0.0 0.0 0.00 0.00 0.00 83 1002.3
20260905230455 55 0.0 0.0 0.00 0.00 0.00 81 1002.0
20260905224127 56 0.0 0.0 0.00 0.00 0.00 79 1001.8
20260905222455 57 0.0 0.0 0.00 0.00 0.00 82 1001.2
20260905220456 57 0.0 0.0 0.00 0.00 0.00 81 1001.5
20260905214456 57 0.0 0.0 0.00 0.00 0.00 82 1001.2
20260905212456 57 0.0 0.0 0.00 0.00 0.00 84 1001.1
20260905210125 58 0.0 0.0 0.00 0.00 0.00 82 1000.9
20260905204455 58 0.0 0.0 0.00 0.00 0.00 81 1000.6
20260905202455 59 0.0 0.0 0.00 0.00 0.00 75 1000.0
20260905200456 58 0.0 0.0 0.00 0.00 0.00 78 1000.2
20260905194125 59 0.0 0.0 0.00 0.00 0.00 76 1000.1
20260905192454 59 0.0 0.0 0.00 0.00 0.00 75 1000.0
20260905190126 59 0.0 0.0 0.00 0.00 0.00 73 999.9
20260905184126 59 0.0 0.0 0.00 0.00 0.00 72 999.8
20260905182455 59 0.0 0.0 0.00 0.00 0.00 72 999.7
20260905180124 59 0.0 0.0 0.00 0.00 0.00 71 999.6
20260905174452 60 0.0 0.0 0.00 0.00 0.00 68 999.4
20260905172453 61 0.0 0.0 0.00 0.00 0.00 64 999.2
20260905170454 61 0.0 0.0 0.00 0.00 0.00 64 998.8
20260905164455 62 0.0 0.0 0.00 0.00 0.00 63 998.6
20260905162452 62 0.0 0.0 0.00 0.00 0.00 62 998.3
20260905160454 62 0.0 0.0 0.00 0.00 0.00 62 998.1
20260905154453 62 0.0 0.0 0.00 0.00 0.00 64 998.0
20260905152125 63 0.0 0.0 0.00 0.00 0.00 65 997.9
20260905150454 62 0.0 0.0 0.00 0.00 0.00 65 997.8
20260905144454 65 0.0 0.0 0.00 0.00 0.00 56 997.6
20260905142454 64 0.0 0.0 0.00 0.00 0.00 57 997.3
20260905140454 65 0.0 0.0 0.00 0.00 0.00 65 997.2
20260905134453 63 0.0 0.0 0.00 0.00 0.00 68 997.1
20260905132125 63 0.0 0.0 0.00 0.00 0.00 67 997.0
20260905124454 62 0.0 0.0 0.00 0.00 0.00 69 996.9
20260905122453 63 0.0 0.0 0.00 0.00 0.00 67 996.8
20260905120453 62 0.0 0.0 0.00 0.00 0.00 67 996.7
20260905114454 63 0.0 0.0 0.00 0.00 0.00 61 996.6
20260905110453 63 0.0 0.0 0.00 0.00 0.00 52 996.4
20260905104454 63 0.0 0.0 0.00 0.00 0.00 52 996.2
20260905102454 62 0.0 0.0 0.00 0.00 0.00 52 996.0
20260905100453 62 0.0 0.0 0.00 0.00 0.00 55 995.8
20260905094453 62 0.0 0.0 0.00 0.00 0.00 59 995.7
20260905092453 61 0.0 0.0 0.00 0.00 0.00 56 995.6
20260905090454 60 0.0 0.0 0.00 0.00 0.00 57 995.5
20260905084454 60 0.0 0.0 0.00 0.00 0.00 63 995.4
20260905082455 59 0.0 0.0 0.00 0.00 0.00 66 995.2
20260905080451 59 0.0 0.0 0.00 0.00 0.00 73 995.1
20260905072451 58 0.0 0.0 0.00 0.00 0.00 76 994.9
20260905070454 58 0.0 0.0 0.00 0.00 0.00 79 994.8
20260905064451 56 0.0 0.0 0.00 0.00 0.00 82 994.7
20260905062122 53 0.0 0.0 0.00 0.00 0.00 90 994.5
20260905060452 53 0.0 0.0 0.00 0.00 0.00 91 994.5
20260905052451 53 0.0 0.0 0.00 0.00 0.00 93 994.5
20260905050451 53 0.0 0.0 0.00 0.00 0.00 94 994.5
20260905044453 51 0.0 0.0 0.00 0.00 0.00 97 994.5